Flag for United Kingdom Weather past 2 weeks in Norwich, England, United Kingdom

Now
63 °F

Broken clouds.


Feels Like: 63 °F
Forecast: 50 / 62 °F
Wind: 23 mph from Southwest

Location: Norwich Weather Centre

Current Time: Jun 2, 2015 at 12:32:24 PM

Latest Report: Jun 2, 2015 at 11:50 AM


Visibility: N/A

Pressure: 29.50 "Hg

Humidity: 77%

Dew point: 55 °F

Location of NorwichLocation

Historic Weather in Norwich — Graph

°F

Norwich temperature yesterday

Maximum temperature yesterday: 61 °F (at 1:50 PM)
Minimum temperature yesterday: 39 °F (at 3:20 AM)
Average temperature yesterday: 51 °F

Past Weeks' High & Low Weather Summary

 TemperatureHumidityPressure
High70 °F (May 22, 2:20 PM)100% (May 23, 5:20 AM)30.30 "Hg (May 23, 5:20 AM)
Low39 °F (May 20, 4:20 AM)34% (May 28, 2:20 PM)29.47 "Hg (May 18, 2:20 PM)
Average53 °F74%29.95 "Hg
* Reported May 18 11:20 AM — Jun 2 11:20 AM, Norwich, Weather by CustomWeather, © 2015

Note: Actual official high and low records may vary slightly from our data, if they occured in-between our weather recording intervals... More about our weather records

Advertising

Norwich weather history for previous 24 hours

 ConditionsComfort  
Time TempWeatherWind HumidityBarometerVisibility
11:20 AM
Tue, Jun 2
61 °FDrizzle. Broken clouds.22 mph88%29.50 "Hg6 mi
10:50 AM61 °FDrizzle. Partly sunny.22 mph88%29.50 "HgN/A
10:20 AM59 °FDrizzle. Partly sunny.22 mph94%29.50 "HgN/A
9:50 AM59 °FPartly sunny.22 mph88%29.50 "HgN/A
9:20 AM59 °FDrizzle. Broken clouds.21 mph88%29.50 "Hg4 mi
8:50 AM57 °FLight rain. Partly sunny.18 mph94%29.50 "Hg4 mi
8:20 AM57 °FDrizzle. Partly sunny.18 mph94%29.50 "Hg2 mi
7:50 AM55 °FDrizzle. Partly sunny.21 mph94%29.47 "Hg2 mi
7:20 AM57 °FLight rain. Partly sunny.20 mph88%29.47 "HgN/A
6:50 AM55 °FLight rain. Partly sunny.18 mph94%29.47 "HgN/A
6:20 AM55 °FDrizzle. Partly sunny.21 mph94%29.47 "HgN/A
5:50 AM55 °FDrizzle. Partly sunny.23 mph88%29.47 "HgN/A
5:20 AM55 °FMostly cloudy.21 mph88%29.47 "HgN/A
4:20 AM55 °FMostly cloudy.25 mph82%29.47 "HgN/A
3:50 AM54 °FMostly cloudy.23 mph88%29.47 "HgN/A
3:20 AM54 °FMostly cloudy.24 mph82%29.50 "HgN/A
2:50 AM52 °FMostly cloudy.22 mph88%29.50 "HgN/A
2:20 AM52 °FRain. Overcast.22 mph88%29.53 "Hg4 mi
1:50 AM52 °FLight rain. Mostly cloudy.21 mph88%29.53 "HgN/A
1:20 AM52 °FRain. Mostly cloudy.23 mph82%29.56 "HgN/A
12:50 AM52 °FRain. Partly cloudy.25 mph82%29.56 "HgN/A
12:20 AM52 °FMostly cloudy.23 mph82%29.59 "HgN/A
11:50 PM
Mon, Jun 1
52 °FRain. Overcast.23 mph82%29.62 "Hg6 mi
11:20 PM52 °FPassing clouds.22 mph77%29.62 "HgN/A
10:50 PM52 °FLight rain. Passing clouds.21 mph77%29.65 "HgN/A
10:20 PM52 °FLight rain. Passing clouds.21 mph72%29.68 "HgN/A
9:50 PM52 °FScattered clouds.21 mph77%29.71 "HgN/A
9:20 PM52 °FRain. Passing clouds.20 mph77%29.71 "HgN/A
8:50 PM52 °FSprinkles. Scattered clouds.17 mph72%29.74 "HgN/A
8:20 PM52 °FScattered clouds.15 mph72%29.74 "HgN/A
7:50 PM52 °FScattered clouds.14 mph77%29.77 "HgN/A
7:20 PM50 °FSprinkles. Broken clouds.13 mph82%29.80 "HgN/A
6:50 PM50 °FSprinkles. Broken clouds.21 mph82%29.80 "Hg5 mi
6:20 PM55 °FSprinkles. Passing clouds.20 mph59%29.80 "HgN/A
5:50 PM57 °FPassing clouds.22 mph51%29.80 "HgN/A
5:20 PM57 °FPassing clouds.18 mph55%29.83 "HgN/A
4:50 PM57 °FPassing clouds.20 mph55%29.83 "HgN/A
4:20 PM59 °FPassing clouds.20 mph48%29.83 "HgN/A
3:50 PM59 °FScattered clouds.21 mph55%29.86 "HgN/A
3:20 PM61 °FScattered clouds.18 mph48%29.86 "HgN/A
2:50 PM61 °FScattered clouds.17 mph45%29.86 "HgN/A
2:20 PM61 °FScattered clouds.18 mph45%29.89 "HgN/A
1:50 PM61 °FScattered clouds.16 mph48%29.89 "HgN/A
1:20 PM57 °FScattered clouds.16 mph55%29.92 "HgN/A
12:50 PM59 °FScattered clouds.18 mph48%29.92 "HgN/A
12:20 PM55 °FLight rain. Scattered clouds.14 mph63%29.92 "HgN/A
Weather by CustomWeather, © 2015

See weather overviewHow to use our weather pages